When you browse on this site, cookies collect data to enhance your experience and personalize the content and advertising you see.
Visit our Privacy Policy to learn more. By continuing to use the site, you agree to this use of cookies and data.
  • Em Portugal
  • Lista de países
  • Para 7 dias
  • Temperatura da água
  • Mapa do tempo
  • Widgets de tempo
  • user-avatar
    Iniciar Sessão

    Previsão horária em Gulevichskiy

    Hoje, 18 Setembro, Quarta-feira

    Tempo Temperatura Precipitação Vento Pressão Humidade
    00:00 +7°C° 0.2 mm 4 m/s 735 mmHg 90%
    01:00 +7°C° 0.2 mm 4 m/s 735 mmHg 90%
    02:00 +8°C° 0 mm 3 m/s 735 mmHg 92%
    03:00 +6°C° 1.3 mm 4 m/s 734 mmHg 91%
    04:00 +6°C° 1.3 mm 5 m/s 734 mmHg 91%
    05:00 +4°C° 1.3 mm 6 m/s 734 mmHg 91%
    06:00 +4°C° 0.4 mm 6 m/s 735 mmHg 90%
    07:00 +4°C° 0.4 mm 6 m/s 735 mmHg 88%
    08:00 +4°C° 0.4 mm 6 m/s 736 mmHg 87%
    09:00 +5°C° 0 mm 6 m/s 736 mmHg 84%
    10:00 +7°C° 0 mm 6 m/s 737 mmHg 81%
    11:00 +7°C° 0 mm 6 m/s 737 mmHg 78%
    12:00 +7°C° 0.1 mm 6 m/s 737 mmHg 78%
    13:00 +8°C° 0.1 mm 6 m/s 738 mmHg 77%
    14:00 +8°C° 0.1 mm 7 m/s 738 mmHg 77%
    15:00 +8°C° 0.2 mm 6 m/s 739 mmHg 76%
    16:00 +9°C° 0.2 mm 6 m/s 740 mmHg 75%
    17:00 +9°C° 0.2 mm 5 m/s 740 mmHg 75%
    18:00 +8°C° 0 mm 5 m/s 741 mmHg 79%
    19:00 +7°C° 0 mm 5 m/s 741 mmHg 83%
    20:00 +7°C° 0 mm 5 m/s 742 mmHg 87%
    21:00 +6°C° 0.1 mm 5 m/s 742 mmHg 89%
    22:00 +6°C° 0.1 mm 5 m/s 742 mmHg 91%
    23:00 +6°C° 0.1 mm 5 m/s 743 mmHg 92%

    Amanhã, 19 Setembro, Quinta-feira

    Tempo Temperatura Precipitação Vento Pressão Humidade
    00:00 +6°C° 0 mm 5 m/s 743 mmHg 93%
    01:00 +6°C° 0 mm 5 m/s 743 mmHg 95%
    02:00 +6°C° 0 mm 4 m/s 744 mmHg 96%
    03:00 +6°C° 0 mm 5 m/s 744 mmHg 95%
    04:00 +6°C° 0 mm 5 m/s 744 mmHg 93%
    05:00 +6°C° 0 mm 5 m/s 745 mmHg 92%
    06:00 +7°C° 0.2 mm 5 m/s 745 mmHg 91%
    07:00 +7°C° 0.2 mm 5 m/s 745 mmHg 90%
    08:00 +7°C° 0.2 mm 5 m/s 746 mmHg 89%
    09:00 +7°C° 0.1 mm 5 m/s 746 mmHg 88%
    10:00 +7°C° 0.1 mm 5 m/s 747 mmHg 86%
    11:00 +8°C° 0.1 mm 4 m/s 747 mmHg 84%
    12:00 +8°C° 0 mm 4 m/s 747 mmHg 80%
    13:00 +10°C° 0 mm 4 m/s 747 mmHg 76%
    14:00 +10°C° 0 mm 4 m/s 747 mmHg 71%
    15:00 +11°C° 0 mm 4 m/s 747 mmHg 71%
    16:00 +11°C° 0 mm 3 m/s 747 mmHg 70%
    17:00 +11°C° 0 mm 3 m/s 747 mmHg 70%
    18:00 +10°C° 0.1 mm 3 m/s 747 mmHg 76%
    19:00 +9°C° 0.1 mm 3 m/s 747 mmHg 82%
    20:00 +7°C° 0.1 mm 3 m/s 747 mmHg 87%
    21:00 +7°C° 0 mm 3 m/s 747 mmHg 88%
    22:00 +7°C° 0 mm 3 m/s 747 mmHg 88%
    23:00 +7°C° 0 mm 3 m/s 748 mmHg 89%

    Depois de amanhã, 20 Setembro, Sexta-feira

    Tempo Temperatura Precipitação Vento Pressão Humidade
    00:00 +5°C° 0.1 mm 4 m/s 747 mmHg 91%
    01:00 +5°C° 0.1 mm 4 m/s 747 mmHg 93%
    02:00 +5°C° 0.1 mm 4 m/s 747 mmHg 95%
    03:00 +5°C° 0 mm 4 m/s 747 mmHg 94%
    04:00 +5°C° 0 mm 4 m/s 748 mmHg 94%
    05:00 +5°C° 0 mm 5 m/s 748 mmHg 93%
    06:00 +5°C° 0 mm 5 m/s 748 mmHg 90%
    07:00 +5°C° 0 mm 5 m/s 748 mmHg 87%
    08:00 +4°C° 0 mm 6 m/s 748 mmHg 84%
    09:00 +5°C° 0 mm 6 m/s 749 mmHg 77%
    10:00 +7°C° 0 mm 6 m/s 749 mmHg 70%
    11:00 +8°C° 0 mm 6 m/s 750 mmHg 63%
    12:00 +9°C° 0.1 mm 6 m/s 750 mmHg 59%
    13:00 +9°C° 0.1 mm 7 m/s 750 mmHg 56%
    14:00 +10°C° 0.1 mm 7 m/s 750 mmHg 52%
    15:00 +9°C° 0.1 mm 6 m/s 750 mmHg 55%
    16:00 +9°C° 0.1 mm 5 m/s 750 mmHg 58%
    17:00 +8°C° 0.1 mm 4 m/s 750 mmHg 61%
    18:00 +7°C° 0 mm 4 m/s 750 mmHg 67%
    19:00 +7°C° 0 mm 3 m/s 751 mmHg 73%
    20:00 +4°C° 0 mm 3 m/s 751 mmHg 78%
    21:00 +4°C° 0 mm 3 m/s 751 mmHg 81%
    22:00 +3°C° 0 mm 3 m/s 751 mmHg 83%
    23:00 +4°C° 0 mm 2 m/s 752 mmHg 85%

    21 Setembro, Sábado

    Tempo Temperatura Precipitação Vento Pressão Humidade
    00:00 +3°C° 0 mm 2 m/s 752 mmHg 86%
    01:00 +3°C° 0 mm 2 m/s 752 mmHg 86%
    02:00 +3°C° 0 mm 2 m/s 752 mmHg 87%
    03:00 +3°C° 0 mm 2 m/s 752 mmHg 87%
    04:00 +3°C° 0 mm 2 m/s 752 mmHg 87%
    05:00 +3°C° 0 mm 2 m/s 752 mmHg 86%
    06:00 +3°C° 0 mm 3 m/s 752 mmHg 82%
    07:00 +4°C° 0 mm 3 m/s 751 mmHg 78%
    08:00 +5°C° 0 mm 3 m/s 751 mmHg 73%
    09:00 +6°C° 0 mm 4 m/s 751 mmHg 73%
    10:00 +7°C° 0 mm 5 m/s 751 mmHg 72%
    11:00 +8°C° 0 mm 5 m/s 751 mmHg 72%
    12:00 +8°C° 0.2 mm 5 m/s 750 mmHg 77%
    13:00 +8°C° 0.2 mm 6 m/s 750 mmHg 82%
    14:00 +8°C° 0.2 mm 6 m/s 750 mmHg 87%
    15:00 +9°C° 0 mm 5 m/s 749 mmHg 85%
    16:00 +12°C° 0 mm 5 m/s 749 mmHg 83%
    17:00 +13°C° 0 mm 4 m/s 749 mmHg 82%
    18:00 +13°C° 0 mm 4 m/s 749 mmHg 83%
    19:00 +12°C° 0 mm 4 m/s 749 mmHg 84%
    20:00 +12°C° 0 mm 4 m/s 749 mmHg 86%
    21:00 +11°C° 0 mm 4 m/s 749 mmHg 88%
    22:00 +11°C° 0 mm 4 m/s 748 mmHg 90%
    23:00 +11°C° 0 mm 4 m/s 748 mmHg 92%

    22 Setembro, Domingo

    Tempo Temperatura Precipitação Vento Pressão Humidade
    00:00 +10°C° 0 mm 5 m/s 748 mmHg 92%
    01:00 +9°C° 0 mm 5 m/s 748 mmHg 93%
    02:00 +9°C° 0 mm 5 m/s 748 mmHg 94%
    03:00 +9°C° 0 mm 5 m/s 748 mmHg 92%
    04:00 +10°C° 0 mm 6 m/s 748 mmHg 91%
    05:00 +10°C° 0 mm 6 m/s 748 mmHg 90%
    06:00 +10°C° 0 mm 5 m/s 748 mmHg 89%
    07:00 +10°C° 0 mm 5 m/s 748 mmHg 88%
    08:00 +10°C° 0 mm 5 m/s 748 mmHg 86%
    09:00 +12°C° 0 mm 5 m/s 748 mmHg 81%
    10:00 +14°C° 0 mm 4 m/s 748 mmHg 76%
    11:00 +15°C° 0 mm 4 m/s 749 mmHg 71%
    12:00 +17°C° 0 mm 4 m/s 749 mmHg 68%
    13:00 +18°C° 0 mm 4 m/s 748 mmHg 66%
    14:00 +18°C° 0 mm 3 m/s 748 mmHg 63%
    15:00 +18°C° 0 mm 3 m/s 748 mmHg 66%
    16:00 +17°C° 0 mm 3 m/s 748 mmHg 69%
    17:00 +16°C° 0 mm 2 m/s 748 mmHg 72%
    18:00 +15°C° 0 mm 2 m/s 748 mmHg 72%
    19:00 +12°C° 0 mm 3 m/s 748 mmHg 73%
    20:00 +11°C° 0 mm 3 m/s 748 mmHg 73%
    21:00 +10°C° 0 mm 3 m/s 749 mmHg 66%
    22:00 +9°C° 0 mm 3 m/s 749 mmHg 58%
    23:00 +9°C° 0 mm 3 m/s 749 mmHg 51%

    23 Setembro, Segunda-feira

    Tempo Temperatura Precipitação Vento Pressão Humidade
    00:00 +8°C° 0 mm 4 m/s 749 mmHg 51%
    01:00 +7°C° 0 mm 4 m/s 749 mmHg 52%
    02:00 +7°C° 0 mm 4 m/s 749 mmHg 52%
    03:00 +7°C° 0 mm 4 m/s 748 mmHg 53%
    04:00 +7°C° 0 mm 4 m/s 748 mmHg 53%
    05:00 +7°C° 0 mm 4 m/s 748 mmHg 54%
    06:00 +7°C° 0 mm 4 m/s 748 mmHg 55%
    07:00 +7°C° 0 mm 4 m/s 747 mmHg 55%
    08:00 +7°C° 0 mm 4 m/s 747 mmHg 56%
    09:00 +8°C° 0 mm 5 m/s 747 mmHg 57%
    10:00 +8°C° 0 mm 5 m/s 747 mmHg 57%
    11:00 +9°C° 0 mm 5 m/s 747 mmHg 58%
    12:00 +10°C° 0 mm 5 m/s 747 mmHg 58%
    13:00 +12°C° 0 mm 5 m/s 746 mmHg 58%
    14:00 +13°C° 0 mm 5 m/s 746 mmHg 57%
    15:00 +12°C° 0 mm 5 m/s 745 mmHg 59%
    16:00 +12°C° 0 mm 4 m/s 745 mmHg 61%
    17:00 +11°C° 0 mm 4 m/s 745 mmHg 62%
    18:00 +10°C° 0 mm 4 m/s 745 mmHg 64%
    19:00 +8°C° 0 mm 4 m/s 745 mmHg 66%
    20:00 +6°C° 0 mm 4 m/s 745 mmHg 67%
    21:00 +6°C° 0 mm 4 m/s 745 mmHg 68%
    22:00 +5°C° 0 mm 4 m/s 745 mmHg 68%
    23:00 +5°C° 0 mm 4 m/s 745 mmHg 68%
    Mostrar mais